www.pogodaiklimat.ru

Погода и климат >> Архив погоды >> Австрия >> Андау


ПОГОДА в Андау

  • Прогноз погоды в Андау
  • Монитор погоды в Андау

АРХИВ ПОГОДЫ в Андау

Время (UTC), дата Ветер
(напр.,м/с)
 
Видим.   Явления Облачность Т
(С)
Тd
(С)
f
(%)
Тe
(С)
Тes
(С)
Комфортность P
(гПа)
Po
(гПа)
Тmin
(С)
Tmax
(С)
R
(мм)
R24
(мм)
S
(см)
16 16.08 СЗ 5 н/о н/о +24.0 +12.6 49 +26 +26 жарко 1016.2 1002.3
17 16.08 СЗ 3 н/о н/о +22.2 +12.2 53 +25 +25 комфорт 1016.3 1002.3
18 16.08 СЗ 2 н/о н/о +21.6 +11.4 52 +24 +24 комфорт 1016.6 1002.5 +17.6 +26.0 1
19 16.08 СЗ 1 н/о н/о +21.0 +11.0 53 +24 +24 комфорт 1017.4 1003.3
20 16.08 СЗ 1 н/о н/о +18.9 +11.6 63 +21 +21 комфорт 1017.7 1003.5
21 16.08 З 1 н/о н/о +17.6 +12.1 70 +19 +19 1017.8 1003.5
22 16.08 З 1 н/о н/о +17.2 +12.4 73 +18 +18 1017.7 1003.4
23 16.08 ЮЗ 1 н/о н/о +15.9 +12.4 80 +17 +17 1017.6 1003.2
00 17.08 Ю 1 н/о н/о +14.0 +11.9 87 +14 +14 1017.6 1003.1
01 17.08 Ю 1 н/о н/о +13.6 +11.8 89 +14 +14 1017.5 1003.0
02 17.08 штиль 0 н/о н/о +13.4 +11.6 89 +13 +13 1017.5 1003.0
03 17.08 СВ 1 н/о н/о +13.2 +11.7 91 +13 +13 1017.0 1002.5
04 17.08 штиль 0 н/о н/о +12.3 +10.8 91 +12 +12 1017.5 1003.0
05 17.08 В 1 н/о н/о +12.7 +11.3 91 +13 +13 1017.5 1003.0
06 17.08 Ю 1 н/о н/о +15.9 +12.6 81 +17 +17 1017.5 1003.1 +12.0 +21.8
07 17.08 В 2 н/о н/о +19.9 +13.9 68 +22 +22 комфорт 1017.4 1003.2
08 17.08 ЮВ 2 н/о н/о +21.9 +14.6 63 +25 +25 комфорт 1016.9 1002.9
09 17.08 ЮВ 3 н/о н/о +23.1 +14.5 58 +27 +27 душно 1016.3 1002.3
10 17.08 ЮВ 3 н/о н/о +24.6 +14.2 52 +27 +27 жарко 1016.3 1002.4
11 17.08 Ю 2 н/о н/о +26.3 +13.4 45 +28 +28 жарко 1015.6 1001.8
12 17.08 Ю 3 н/о н/о +27.5 +13.3 42 +29 +29 жарко 1014.9 1001.1
13 17.08 Ю 2 н/о н/о +28.7 +13.4 39 +30 +30 жарко 1014.4 1000.7
14 17.08 ЮВ 3 н/о н/о +27.3 +13.8 43 +29 +29 жарко 1014.2 1000.4
15 17.08 ЮВ 2 н/о н/о +28.4 +13.0 39 +30 +30 жарко 1013.8 1000.1
16 17.08 Ю 2 н/о н/о +28.2 +12.9 39 +30 +30 жарко 1013.5 999.8
17 17.08 Ю 2 н/о н/о +26.6 +14.3 47 +29 +29 жарко 1013.9 1000.1
18 17.08 Ю 1 н/о н/о +24.8 +14.9 54 +28 +28 жарко 1013.8 999.9 +15.4 +29.0
19 17.08 Ю 1 н/о н/о +22.9 +15.0 61 +27 +27 душно 1014.1 1000.1
20 17.08 ЮВ 2 н/о н/о +20.9 +15.2 70 +25 +25 комфорт 1014.4 1000.3
21 17.08 Ю 2 н/о н/о +20.5 +15.2 72 +24 +24 комфорт 1013.9 999.8
22 17.08 Ю 1 н/о н/о +20.5 +15.3 72 +24 +24 комфорт 1014.0 999.9
23 17.08 Ю 2 н/о н/о +20.1 +15.3 74 +23 +23 комфорт 1014.0 999.9
00 18.08 ЮВ 2 н/о н/о +19.6 +15.4 77 +22 +22 комфорт 1013.7 999.6
01 18.08 ЮВ 1 н/о н/о +19.4 +15.4 78 +22 +22 комфорт 1013.7 999.6
02 18.08 ЮВ 2 н/о н/о +19.5 +15.4 77 +22 +22 комфорт 1013.6 999.5
03 18.08 Ю 1 н/о н/о +19.2 +15.4 79 +22 +22 комфорт 1013.4 999.3
04 18.08 ЮВ 1 н/о н/о +18.9 +15.5 81 +21 +21 комфорт 1013.0 998.9
05 18.08 СВ 1 н/о н/о +19.2 +15.5 79 +22 +22 комфорт 1013.4 999.3
06 18.08 ЮВ 1 н/о н/о +20.2 +16.3 78 +24 +24 комфорт 1013.6 999.5 +18.9 +25.2
07 18.08 ЮВ 1 н/о н/о +21.7 +16.6 73 +26 +26 душно 1013.6 999.6
08 18.08 ЮВ 2 н/о н/о +24.4 +17.1 64 +28 +28 душно 1013.6 999.7
09 18.08 ЮВ 2 н/о н/о +25.2 +17.4 62 +29 +29 душно 1013.5 999.7
10 18.08 ЮВ 3 н/о н/о +27.6 +17.5 54 +32 +32 очень
душно
1013.0 999.3
11 18.08 Ю 3 н/о н/о +30.5 +17.6 46 +35 +35 очень
душно
1012.6 999.0
12 18.08 ЮВ 3 н/о н/о +31.8 +16.2 39 +35 +35 очень
душно
1012.2 998.7
13 18.08 ЮВ 3 н/о н/о +32.7 +16.2 37 +35 +35 душно 1012.0 998.5
14 18.08 Ю 3 н/о н/о +32.9 +15.1 34 +35 +35 душно 1011.7 998.2
15 18.08 Ю 4 н/о н/о +32.3 +16.0 38 +35 +35 очень
душно
1011.7 998.2
16 18.08 Ю 3 н/о н/о +31.6 +16.6 41 +35 +35 очень
душно
1011.6 998.1
17 18.08 Ю 3 н/о н/о +29.8 +17.0 46 +33 +33 душно 1011.7 998.1
18 18.08 Ю 2 н/о н/о +27.5 +17.5 54 +32 +32 очень
душно
1011.8 998.1 +19.5 +33.2
19 18.08 Ю 2 н/о н/о +26.0 +17.7 60 +30 +30 душно 1012.3 998.5
20 18.08 Ю 3 н/о н/о +24.8 +18.6 68 +29 +29 душно 1012.4 998.6
21 18.08 Ю 3 н/о н/о +24.1 +18.1 69 +28 +28 душно 1012.6 998.7
22 18.08 Ю 3 н/о н/о +22.9 +17.6 72 +28 +28 душно 1012.5 998.6
23 18.08 ЮВ 3 н/о н/о +21.9 +17.0 74 +26 +26 душно 1012.5 998.5
00 19.08 ЮВ 3 н/о н/о +21.1 +16.9 77 +25 +25 комфорт 1012.1 998.1
01 19.08 Ю 2 н/о н/о +20.7 +17.1 80 +25 +25 комфорт 1012.2 998.2
02 19.08 Ю 2 н/о н/о +20.2 +17.1 82 +24 +24 комфорт 1012.2 998.2
03 19.08 ЮВ 2 н/о н/о +19.4 +16.9 85 +22 +22 комфорт 1012.5 998.4
04 19.08 ЮВ 2 н/о н/о +19.0 +16.5 85 +21 +21 комфорт 1012.9 998.8
05 19.08 Ю 2 н/о н/о +19.8 +16.6 82 +23 +23 комфорт 1013.7 999.6
06 19.08 Ю 1 н/о н/о +21.7 +17.2 76 +26 +26 душно 1014.8 1000.8 +18.8 +27.8
07 19.08 З 2 н/о н/о +24.5 +17.6 65 +29 +29 душно 1015.1 1001.2
08 19.08 СЗ 4 н/о н/о +27.6 +16.0 49 +31 +31 душно 1015.1 1001.4
09 19.08 СЗ 3 н/о н/о +29.1 +15.8 45 +32 +32 душно 1015.5 1001.8
10 19.08 СЗ 2 н/о н/о +30.2 +16.5 44 +34 +34 очень
душно
1015.6 1002.0
11 19.08 СЗ 3 н/о н/о +30.8 +16.3 42 +34 +34 очень
душно
1015.7 1002.1
12 19.08 СЗ 3 н/о н/о +32.1 +15.9 38 +35 +35 очень
душно
1015.7 1002.1
13 19.08 С 2 н/о н/о +32.7 +15.5 36 +35 +35 душно 1015.6 1002.1
14 19.08 ЮЗ 1 н/о н/о +32.7 +15.4 35 +35 +35 душно 1015.5 1002.0
15 19.08 штиль 0 н/о н/о +32.9 +15.1 34 +35 +35 душно 1015.0 1001.5
16 19.08 ЮВ 2 н/о н/о +31.7 +16.8 41 +35 +35 очень
душно
1015.1 1001.5
17 19.08 В 1 н/о н/о +29.4 +17.7 49 +34 +34 очень
душно
1015.5 1001.8
18 19.08 СВ 1 н/о н/о +27.3 +17.6 55 +31 +31 душно 1015.9 1002.1 +21.3 +33.4
19 19.08 С 1 н/о н/о +27.3 +17.3 54 +31 +31 душно 1016.5 1002.7 0.0
20 19.08 З 2 н/о н/о +26.7 +16.5 54 +30 +30 душно 1017.2 1003.4
21 19.08 СЗ 3 н/о н/о +24.9 +16.6 60 +28 +28 жарко 1017.3 1003.4 0.0
22 19.08 З 2 н/о н/о +23.8 +16.8 65 +27 +27 жарко 1017.5 1003.5
23 19.08 СЗ 2 н/о н/о +23.6 +16.8 66 +27 +27 жарко 1017.6 1003.6
00 20.08 СЗ 2 н/о н/о +23.1 +17.1 69 +28 +28 душно 1017.7 1003.7 0.0
01 20.08 СЗ 3 н/о н/о +22.5 +16.9 71 +27 +27 душно 1017.6 1003.6
02 20.08 СЗ 3 н/о н/о +21.9 +16.7 72 +26 +26 душно 1018.2 1004.1
03 20.08 СЗ 2 н/о н/о +21.0 +16.8 77 +25 +25 комфорт 1018.3 1004.2
04 20.08 З 2 н/о н/о +20.7 +16.9 79 +25 +25 комфорт 1018.5 1004.4
05 20.08 СЗ 2 н/о н/о +21.6 +17.2 76 +26 +26 душно 1018.6 1004.5
06 20.08 СЗ 3 н/о н/о +23.2 +17.4 70 +29 +29 душно 1018.9 1004.9 +20.6 +27.6 0.0
07 20.08 С 2 н/о н/о +25.2 +17.6 63 +29 +29 душно 1019.0 1005.1
08 20.08 С 2 н/о н/о +26.8 +17.5 57 +31 +31 душно 1019.0 1005.2
09 20.08 С 2 н/о н/о +27.5 +17.7 55 +32 +32 очень
душно
1019.0 1005.2 0.0
10 20.08 С 1 н/о н/о +30.6 +19.3 51 +36 +36 очень
душно
1018.5 1004.9
11 20.08 СЗ 1 н/о н/о +31.5 +18.0 45 +36 +36 очень
душно
1018.4 1004.8
12 20.08 Ю 1 н/о н/о +32.6 +18.4 43 +37 +37 очень
душно
1017.8 1004.3 0.0
13 20.08 Ю 1 н/о н/о +33.0 +19.5 45 +39 +39 очень
душно
1017.3 1003.8
14 20.08 ЮВ 2 н/о н/о +32.8 +19.0 44 +38 +38 очень
душно
1017.1 1003.6
15 20.08 В 2 н/о н/о +32.6 +19.1 45 +38 +38 очень
душно
1016.6 1003.1
16 20.08 Ю 2 н/о н/о +32.2 +17.0 40 +36 +36 очень
душно
1016.3 1002.7
17 20.08 Ю 1 н/о н/о +29.9 +17.3 47 +34 +34 очень
душно
1016.2 1002.5
18 20.08 Ю 1 н/о н/о +27.5 +17.9 56 +32 +32 очень
душно
1016.4 1002.6 +22.9 +33.8 0.0
19 20.08 штиль 0 н/о н/о +25.5 +18.2 64 +30 +30 душно 1016.6 1002.7
20 20.08 ЮВ 2 н/о н/о +25.1 +18.2 66 +30 +30 душно 1016.4 1002.5
21 20.08 ЮЗ 1 н/о н/о +24.2 +18.4 70 +29 +29 душно 1016.6 1002.7
22 20.08 ЮВ 1 н/о н/о +23.8 +18.4 72 +28 +28 душно 1016.6 1002.7
23 20.08 З 1 н/о н/о +23.2 +18.4 74 +29 +29 душно 1017.2 1003.2
00 21.08 СЗ 4 н/о н/о +24.1 +18.3 70 +29 +29 душно 1018.0 1004.1
01 21.08 СЗ 4 н/о н/о +23.3 +16.9 67 +28 +28 душно 1019.1 1005.1
02 21.08 СЗ 6
{13}
н/о н/о +21.4 +16.2 72 +25 +25 комфорт 1020.3 1006.2 0.0
03 21.08 СЗ 6
{15}
н/о н/о +19.7 +15.1 75 +21 +21 комфорт 1021.2 1007.0 0.0
04 21.08 СЗ 6
{14}
н/о н/о +18.8 +13.7 72 +19 +19 1022.7 1008.4 0.0
05 21.08 СЗ 7
{15}
н/о н/о +18.9 +13.1 69 +19 +19 1023.6 1009.3
06 21.08 СЗ 5
{15}
н/о н/о +19.0 +13.0 68 +20 +20 1024.6 1010.3 +18.7 +27.7 0.0
07 21.08 СЗ 5 н/о н/о +20.2 +12.9 63 +22 +22 комфорт 1025.0 1010.8
08 21.08 СЗ 6
{14}
н/о н/о +20.6 +12.9 61 +23 +23 комфорт 1025.3 1011.1
09 21.08 СЗ 5
{14}
н/о н/о +21.1 +12.7 59 +23 +23 комфорт 1025.5 1011.3
10 21.08 СЗ 5 н/о н/о +22.8 +13.2 55 +26 +26 жарко 1025.4 1011.3
11 21.08 СЗ 7
{13}
н/о н/о +22.4 +13.3 56 +25 +25 комфорт 1025.3 1011.2
12 21.08 СЗ 5
{14}
н/о н/о +21.5 +13.3 60 +24 +24 комфорт 1025.7 1011.5
13 21.08 СЗ 5 н/о н/о +21.2 +13.2 60 +24 +24 комфорт 1025.6 1011.4 0.0
14 21.08 СЗ 4 н/о н/о +21.4 +13.3 60 +24 +24 комфорт 1025.5 1011.3
15 21.08 СЗ 5 н/о н/о +20.8 +13.1 61 +23 +23 комфорт 1025.6 1011.4 0.0
16 21.08 СЗ 4 н/о в посл. час осадки н/о +20.6 +13.2 63 +23 +23 комфорт 1025.6 1011.4 0.3
17 21.08 СЗ 4 н/о н/о +20.8 +12.9 61 +23 +23 комфорт 1025.2 1011.0
18 21.08 С 2
{14}
н/о {осадки} н/о +20.0 +13.1 64 +22 +22 комфорт 1025.5 1011.2 +18.9 +22.8 0.3
19 21.08 С 3 н/о н/о +19.5 +12.9 66 +21 +21 комфорт 1025.7 1011.4
20 21.08 СЗ 3 н/о н/о +18.8 +13.0 69 +20 +20 1025.9 1011.6
21 21.08 СЗ 3 н/о н/о +18.0 +12.9 72 +18 +18 1026.0 1011.6
22 21.08 СЗ 3 н/о н/о +17.6 +12.9 74 +18 +18 1026.2 1011.8
23 21.08 СЗ 3 н/о н/о +17.3 +12.8 75 +17 +17 1025.7 1011.3
00 22.08 СЗ 3 н/о н/о +17.0 +12.8 76 +17 +17 1025.4 1011.0
01 22.08 СЗ 2 н/о н/о +16.4 +12.7 79 +17 +17 1025.2 1010.8
02 22.08 СЗ 2 н/о н/о +15.9 +12.7 81 +16 +16 1025.3 1010.8
03 22.08 СЗ 2 н/о н/о +15.9 +12.6 81 +16 +16 1024.9 1010.4
04 22.08 СЗ 2 н/о н/о +15.5 +12.6 83 +15 +15 1025.0 1010.5
05 22.08 З 2 н/о н/о +15.8 +12.7 82 +16 +16 1025.2 1010.7
06 22.08 З 2 н/о н/о +17.0 +13.0 77 +17 +17 1025.5 1011.1 +15.4 +20.2
07 22.08 СЗ 2 н/о в посл. час осадки н/о +15.7 +14.3 91 +16 +16 1025.3 1010.8 2
08 22.08 СЗ 1 н/о ливневой дождь н/о +16.2 +14.9 92 +17 +17 1025.2 1010.8 0.8
09 22.08 СЗ 2 н/о {ливн. осадки} н/о +18.0 +14.8 82 +19 +19 1025.6 1011.2 2
10 22.08 СЗ 1 н/о н/о +20.1 +15.7 76 +24 +24 комфорт 1025.3 1011.1 0.0
11 22.08 СВ 1 н/о н/о +22.9 +16.9 69 +28 +28 душно 1024.8 1010.7
12 22.08 С 1 н/о {ливн. осадки} н/о +23.0 +15.1 61 +27 +27 душно 1024.3 1010.2 2
13 22.08 штиль 0 н/о н/о +24.2 +15.9 60 +27 +27 жарко 1023.9 1009.9
14 22.08 В 1 н/о н/о +23.7 +15.8 61 +27 +27 жарко 1023.7 1009.7 0.0
15 22.08 В 1 н/о н/о +23.5 +16.7 66 +27 +27 душно 1023.6 1009.5 0.0
16 22.08 ЮВ 1 н/о н/о +23.5 +16.9 66 +27 +27 душно 1023.2 1009.2
17 22.08 ЮВ 1 н/о н/о +22.7 +17.5 72 +28 +28 душно 1023.3 1009.2
18 22.08 В 1 н/о н/о +21.4 +17.4 78 +25 +25 комфорт 1023.1 1009.0 +15.6 +24.6 2
19 22.08 штиль 0 н/о н/о +20.8 +17.6 82 +24 +24 комфорт 1024.3 1010.1
20 22.08 З 1 н/о н/о +20.6 +17.6 83 +25 +25 комфорт 1024.5 1010.3
21 22.08 З 1 н/о н/о +20.4 +17.1 81 +25 +25 комфорт 1024.4 1010.2
22 22.08 СЗ 1 н/о н/о +20.6 +17.3 81 +25 +25 комфорт 1024.4 1010.2 0.0
23 22.08 СЗ 2 н/о н/о +20.8 +16.8 78 +25 +25 комфорт 1024.4 1010.2
00 23.08 СЗ 1 н/о н/о +20.4 +16.2 77 +24 +24 комфорт 1024.5 1010.3 0.0
01 23.08 С 1 н/о н/о +19.7 +15.9 79 +23 +23 комфорт 1024.3 1010.1
02 23.08 З 1 н/о н/о +19.5 +15.8 79 +23 +23 комфорт 1024.6 1010.3
03 23.08 СЗ 1 н/о н/о +19.0 +15.5 80 +21 +21 комфорт 1024.6 1010.3
04 23.08 СЗ 1 н/о н/о +19.2 +14.9 76 +22 +22 комфорт 1024.8 1010.5
05 23.08 СЗ 2 н/о н/о +19.0 +14.6 76 +21 +21 комфорт 1024.8 1010.5
06 23.08 СЗ 2 н/о н/о +19.4 +14.5 73 +22 +22 комфорт 1025.3 1011.0 +18.9 +21.6 0.0
07 23.08 СЗ 3 н/о н/о +20.0 +14.3 70 +22 +22 комфорт 1025.4 1011.1
08 23.08 СЗ 2 н/о н/о +21.7 +15.0 66 +25 +25 комфорт 1025.6 1011.4 0.0
09 23.08 СЗ 2 н/о н/о +22.3 +15.3 65 +26 +26 жарко 1025.5 1011.4 0.0
10 23.08 СЗ 2 н/о н/о +23.6 +15.3 60 +27 +27 жарко 1025.3 1011.2
11 23.08 СЗ 2 н/о н/о +26.0 +15.6 53 +29 +29 душно 1024.5 1010.5
12 23.08 С 1 н/о н/о +27.9 +17.2 52 +32 +32 душно 1024.1 1010.2 0.0
13 23.08 СЗ 2 н/о н/о +28.3 +16.0 47 +31 +31 душно 1023.5 1009.7
14 23.08 СЗ 1 н/о н/о +29.1 +16.8 47 +33 +33 очень
душно
1023.0 1009.2
15 23.08 СЗ 1 н/о н/о +29.2 +16.6 47 +33 +33 очень
душно
1022.7 1008.9
16 23.08 штиль 0 н/о н/о +28.6 +16.5 48 +32 +32 душно 1022.2 1008.4

 

Местоположение метеостанции Андау (Австрия): широта 47.77 долгота 17.03 высота над уровнем моря 121 м.

В архиве по умолчанию представлена погода в Андау за последнюю неделю. Архивные данные за месяц целиком и за предыдущие месяцы, начиная с января 2011 года, Вы можете получить, выбрав интересующий диапазон дат из раскрывающегося списка и нажав кнопку "Ввод!".


*Определитесь, кто Вы:
робот инопланетянин человек

Внимание! Время в таблицах - всемирное. Для получения местного времени необходимо прибавить поправку, которая равна 1 ч.

Смотрите также архив погоды в соседних городах и на ближайших метеорологических станциях:

Погода в Мошонмадьяроваре (Венгрия) (22 км)
Погода в Нойзидль-ам-Зе (Австрия) (24 км)
Погода в Нойзидль-ам-Зе (Австрия) (25 км)
Погода в Шопроне (Венгрия) (34 км)
Погода в Айзенштадте (Австрия) (38 км)
Погода в Луцмансбурге (Австрия) (44 км)
Погода в Братислава-Колибе (Словакия) (45 км)
Погода в Зайберсдорфе (Австрия) (46 км)
Погода в Дьере (Венгрия) (49 км)
Погода в Братиславе (Словакия) (49 км)

Пояснения к столбцам:

Ветер - указаны скорость ветра в м/с - средняя за 10 мин, порывы в срок и между сроками (в фигурных скобках) и направление, откуда дует ветер: С - северный, СВ - северо-восточный, В - восточный, ЮВ - юго-восточный, Ю - южный, ЮЗ - юго-западный, З - западный, СЗ - северо-западный.
Видимость - горизонтальная дальность видимости в метрах или километрах. При видимости от 1 до 10 км при отсутствии осадков обычно наблюдается дымка, при ухудшении видимости до 1 км и менее - туман. В сухую погоду видимость может ухудшаться дымом, пылью или мглою.
Явления - указаны атмосферные явления, наблюдавшиеся в срок или в последний час перед сроком; фигурными скобками обозначены явления, наблюдавшиеся между сроками (за 1-3 часа до срока); квадратными скобками обозначены град или гололедные отложения с указанием их диаметра в мм.
Облачность - указаны через наклонную черту общая и нижняя облачность в баллах и высота нижней границы облаков в метрах; квадратными скобками обозначены формы облаков: Ci - перистые, Cs - перисто-слоистые, Cc - перисто-кучевые, Ac - высококучевые, As - высокослоистые, Sc - слоисто-кучевые, Ns - слоисто-дождевые, Cu - кучевые, Cb - кучево-дождевые. Подробнее классификацию облаков см. в Атласе облаков (PDF).
T - Температура воздуха - температура, измеренная на высоте 2 м над землей.
Td - Температура точки росы - температура, при понижении до которой содержащийся в воздухе водяной пар достигнет насыщения.
f - Относительная влажность воздуха - влажноcть воздуха, измеренная на высоте 2 м над землей.
Te - Эффективная температура - температура, которую ощущает одетый по сезону человек в тени. Характеристика душности погоды. При расчете учитывается влияние влажности воздуха и скорости ветра на теплоощущения человека.
Tes - Эффективная температура на солнце - температура, которую ощущает человек, с поправкой на солнечный нагрев. Характеристика знойности погоды. Зависит от высоты солнца над горизонтом, облачности и скорости ветра. Ночью, в пасмурную погоду, а также при ветре 12 м/с и более поправка равна нулю.
P - Атмосферное давление - приведенное к уровню моря атмосферное давление.
Po - Атмосферное давление - измеренное на уровне метеостанции атмосферное давление.
Tmin - Минимальная температура - минимум температуры воздуха на высоте 2 м над землей.
Tmax - Максимальная температура - максимум температуры воздуха на высоте 2 м над землей.
R - Количество осадков - Количество выпавших осадков за период времени, мм. При наведении курсора мыши на число - период времени, за который выпало указанное количество осадков.
R24 - Количество осадков - Количество выпавших осадков за 24 часа, мм.
S - Снежный покров - Высота снежного покрова, см. При наведении курсора мыши на число - состояние снежного покрова и степень покрытия местности в баллах.